FW6591 Weather Reports


time (UTC)temp
F
wind
direction
speed
knots
gust
knots
rain 1hr
in
rain 24hr
in
rain mn
in
humidity
%
barometer
mb
20260505193044 51 136 7.8 14.8 0.23 1.16 1.16 91 1014.1
20260505191600 51 118 10.4 17.4 0.29 1.14 1.14 90 1014.4
20260505190050 51 129 11.3 15.6 0.33 1.07 1.07 91 1014.5
20260505184546 51 123 10.4 14.8 0.35 1.01 1.01 92 1014.5
20260505183046 51 126 7.8 11.3 0.33 0.92 0.92 92 1015.0
20260505181546 51 126 5.2 10.4 0.34 0.84 0.84 92 1015.0
20260505180051 51 114 5.2 10.4 0.35 0.74 0.74 93 1015.1
20260505174547 51 119 7.0 14.8 0.41 0.66 0.66 92 1015.2
20260505173049 51 126 8.7 15.6 0.46 0.59 0.59 92 1015.2
20260505171549 51 133 10.4 15.6 0.39 0.49 0.49 92 1015.3
20260505164553 52 119 6.1 9.6 0.18 0.24 0.24 93 1015.5
20260505163049 52 133 1.7 6.1 0.09 0.12 0.12 93 1015.2
20260505161552 52 83 3.5 12.2 0.07 0.10 0.10 93 1014.4
20260505153059 52 113 3.5 10.4 0.00 0.03 0.03 93 1014.2
20260505151559 52 110 3.5 7.8 0.00 0.03 0.03 93 1014.0
20260505130105 53 90 3.5 8.7 0.00 0.00 0.00 92 1015.3
20260505124556 53 131 2.6 7.8 0.00 0.00 0.00 91 1015.2
20260505123055 53 102 3.5 8.7 0.00 0.00 0.00 91 1015.3
20260505121608 53 132 3.5 8.7 0.00 0.00 0.00 90 1015.6
20260505120048 54 99 4.3 7.8 0.00 0.00 0.00 90 1015.7
20260505114545 54 133 4.3 7.8 0.00 0.00 0.00 91 1015.6
20260505113050 54 128 4.3 7.8 0.00 0.00 0.00 92 1015.8
20260505111549 54 136 2.6 7.8 0.00 0.00 0.00 92 1016.2
20260505101552 54 116 3.5 9.6 0.00 0.00 0.00 92 1017.1
20260505100053 54 99 3.5 7.8 0.00 0.00 0.00 91 1017.3
20260505094549 54 113 3.5 7.8 0.00 0.00 0.00 90 1017.5
20260505093051 55 41 1.7 6.1 0.00 0.00 0.00 88 1017.4
20260505091544 55 66 3.5 6.1 0.00 0.00 0.00 87 1017.7
20260505084553 56 246 2.6 7.8 0.00 0.00 0.00 84 1017.9
20260505083057 55 137 3.5 6.1 0.00 0.00 0.00 85 1018.0
20260505081551 55 167 1.7 5.2 0.00 0.00 0.00 87 1018.1
20260505080053 55 85 0.0 4.3 0.00 0.00 0.00 88 1018.3
20260505074543 55 84 0.9 3.5 0.00 0.00 0.00 89 1018.4
20260505073044 55 145 0.9 3.5 0.00 0.00 0.00 89 1018.4
20260505071539 55 81 1.7 5.2 0.00 0.00 0.00 86 1018.3
20260505070044 56 104 1.7 5.2 0.00 0.00 0.00 86 1018.1
20260505064544 56 180 0.9 4.3 0.00 0.00 0.00 87 1018.0
20260505063046 56 0 0.0 1.7 0.00 0.00 0.00 86 1017.9
20260505061546 56 134 0.9 3.5 0.00 0.00 0.00 88 1017.6
20260505060048 56 108 0.9 2.6 0.00 0.00 0.00 88 1017.6
20260505054544 55 122 0.9 2.6 0.00 0.00 0.00 86 1017.6
20260505053045 55 0 0.0 1.7 0.00 0.00 0.00 85 1017.4
20260505051543 55 159 0.9 2.6 0.00 0.00 0.00 84 1017.4
20260505041544 57 0 0.0 3.5 0.00 0.00 0.00 78 1017.0
20260505040049 57 155 0.9 4.3 0.00 0.00 0.00 78 1017.0
20260505034544 57 234 3.5 5.2 0.00 0.00 0.00 82 1016.8
20260505033102 57 229 2.6 5.2 0.00 0.00 0.00 85 1016.6
20260505031546 57 215 2.6 6.1 0.00 0.00 0.00 85 1016.5
20260505030048 57 191 0.9 2.6 0.00 0.00 0.00 85 1016.4
20260505024544 57 183 0.9 1.7 0.00 0.00 0.00 85 1016.5
20260505023056 57 188 0.9 4.3 0.00 0.00 0.00 85 1016.4
20260505021539 57 173 0.9 2.6 0.00 0.00 0.00 85 1016.3
20260505020048 57 191 0.0 4.3 0.00 0.00 0.00 84 1016.4
20260505014547 57 219 0.9 3.5 0.00 0.00 0.00 85 1016.4
20260505013047 57 131 1.7 3.5 0.00 0.00 0.00 85 1016.7
20260505011544 57 130 1.7 3.5 0.00 0.00 0.00 85 1016.7
20260505010057 57 155 0.0 1.7 0.00 0.00 0.00 84 1016.7
20260505004551 58 145 0.9 2.6 0.00 0.00 0.00 84 1016.8
20260505003045 58 163 0.9 2.6 0.00 0.00 0.00 84 1017.0
20260505001544 58 105 0.9 2.6 0.00 0.00 0.00 84 1016.9
20260505000053 58 117 1.7 6.1 0.00 0.00 0.00 84 1017.0
20260504234609 59 133 1.7 4.3 0.00 0.00 0.00 84 1017.1
20260504233052 59 153 1.7 5.2 0.00 0.00 0.00 83 1017.1
20260504231555 59 171 1.7 4.3 0.00 0.00 0.00 83 1017.2
20260504230052 59 0 0.0 2.6 0.00 0.00 0.00 85 1017.2
20260504224544 59 119 1.7 2.6 0.00 0.00 0.00 87 1017.1
20260504223044 59 0 0.9 2.6 0.00 0.00 0.00 87 1017.1
20260504221547 60 155 0.9 3.5 0.00 0.00 0.00 86 1017.0
20260504220042 60 176 0.9 5.2 0.00 0.00 0.00 87 1017.3
20260504214550 60 140 0.9 5.2 0.00 0.00 0.00 87 1017.5
20260504213051 60 139 1.7 6.1 0.00 0.00 0.00 87 1017.6
20260504211544 60 140 1.7 7.0 0.00 0.00 0.00 88 1017.4
20260504210053 60 136 2.6 5.2 0.00 0.00 0.00 88 1017.6
20260504204625 61 179 2.6 6.1 0.00 0.00 0.00 88 1017.6
20260504203051 61 161 4.3 7.8 0.00 0.00 0.00 88 1017.6
20260504201549 61 178 2.6 7.0 0.00 0.00 0.00 89 1017.4
20260504200053 61 189 1.7 6.1 0.00 0.00 0.00 89 1017.3
20260504194550 60 173 1.7 7.8 0.00 0.00 0.00 89 1017.2